Kodiak, AK

5:03 PM AKDT on October 22, 2017 (GMT -0800)
Kodiak

Weather History for PADQ - April, 2012

Change the Weather History Date:

Friday, April 6, 2012

  Actual Average Record
Temperature  
Mean Temperature 35 °F 35 °F  
Max Temperature 38 °F 41 °F 56 °F (1963)
Min Temperature 32 °F 30 °F 9 °F (1924)
Degree Days  
Heating Degree Days 30 30  
Month to date heating degree days 172 180  
Since 1 July heating degree days 7702 7050  
Cooling Degree Days 0 0  
Month to date cooling degree days 0 0  
Year to date cooling degree days 0 0  
Moisture  
Dew Point 28 °F    
Average Humidity 0    
Maximum Humidity 0    
Minimum Humidity 0    
Precipitation  
Precipitation 0.03 in 0.20 in 1.50 in (1997)
Month to date precipitation 0.59 1.16  
Year to date precipitation 16.31 21.12  
Snow  
Snow 0.30 in 0.40 in - ()
Month to date snowfall 0.3 2.5  
Since 1 July snowfall 142.2 63.2  
Snow Depth T in    
Sea Level Pressure  
Sea Level Pressure 30.16 in    
Wind  
Wind Speed 7 mph (NW)    
Max Wind Speed 14 mph    
Max Gust Speed 20 mph    
Visibility 8 miles    
Events Snow    
T = Trace of Precipitation, MM = Missing Value Source: NWS Daily Summary

Daily Weather History Graph

Daily Weather History Graph

Search for Another Location

Airport or City:

Trip Planner

Search our weather history database for the weather conditions in past years. The results will help you decide how hot, cold, wet, or windy it might be!

Date:

Astronomy

Apr. 06, 2012 Rise Set
Actual Time 7:22 AM AKDT 9:03 PM AKDT
Civil Twilight 6:41 AM AKDT 9:44 PM AKDT
Nautical Twilight 5:50 AM AKDT 10:35 PM AKDT
Astronomical Twilight 4:50 AM AKDT 11:36 PM AKDT
Moon 9:55 PM AKDT (4/6) 6:53 AM AKDT (4/6)
Length of Visible Light 15h 02m
Length of Day
13h 40m
Full, 100% of the Moon is Illuminated
Apr 6
Full
Apr 13
Last Quarter
Apr 20
New
Apr 29
First Quarter
May 5
Full

Hourly Weather History & Observations

Time (AKDT) Temp. Windchill Dew Point Humidity Pressure Visibility Wind Dir Wind Speed Gust Speed Precip Events Conditions
12:42 AM 33.8 °F 28.6 °F 30.2 °F 87% 30.03 in 10.0 mi NW 5.8 mph - N/A   Scattered Clouds
12:53 AM 33.1 °F 27.7 °F 30.9 °F 92% 30.04 in 10.0 mi NW 5.8 mph - N/A   Scattered Clouds
1:53 AM 33.1 °F 26.1 °F 30.0 °F 89% 30.05 in 10.0 mi NW 8.1 mph - N/A   Scattered Clouds
2:53 AM 34.0 °F 26.6 °F 30.0 °F 85% 30.07 in 10.0 mi NW 9.2 mph - N/A   Scattered Clouds
3:53 AM 34.0 °F 26.6 °F 30.0 °F 85% 30.07 in 10.0 mi NW 9.2 mph - N/A   Mostly Cloudy
4:53 AM 34.0 °F 25.5 °F 28.9 °F 82% 30.08 in 10.0 mi NW 11.5 mph - N/A   Mostly Cloudy
5:53 AM 34.0 °F 26.6 °F 27.0 °F 75% 30.09 in 10.0 mi NW 9.2 mph - N/A   Mostly Cloudy
6:53 AM 34.0 °F 26.6 °F 25.0 °F 70% 30.10 in 10.0 mi WNW 9.2 mph - N/A   Mostly Cloudy
7:53 AM 33.1 °F 26.9 °F 26.1 °F 75% 30.12 in 10.0 mi WNW 6.9 mph - N/A   Overcast
8:32 AM 33.8 °F 26.4 °F 26.6 °F 75% 30.13 in 10.0 mi NW 9.2 mph 19.6 mph N/A   Mostly Cloudy
8:53 AM 33.1 °F 25.5 °F 27.0 °F 78% 30.14 in 10.0 mi NW 9.2 mph - N/A   Overcast
9:53 AM 33.1 °F 25.5 °F 27.0 °F 78% 30.15 in 10.0 mi NW 9.2 mph - N/A   Mostly Cloudy
10:53 AM 34.0 °F 27.2 °F 27.0 °F 75% 30.15 in 10.0 mi NW 8.1 mph - N/A   Overcast
11:53 AM 34.0 °F 26.6 °F 27.0 °F 75% 30.17 in 10.0 mi WNW 9.2 mph - N/A   Overcast
12:23 PM 33.8 °F 28.6 °F 28.4 °F 81% 30.17 in 2.0 mi WNW 5.8 mph - 0.00 in Snow Light Snow
12:28 PM 33.8 °F 29.6 °F 28.4 °F 81% 30.17 in 1.2 mi WNW 4.6 mph - 0.01 in Snow Light Snow
12:35 PM 32.0 °F 25.6 °F 28.4 °F 87% 30.18 in 0.8 mi NW 6.9 mph - 0.01 in Snow Light Snow
12:42 PM 32.0 °F 27.5 °F 28.4 °F 87% 30.18 in 0.8 mi WNW 4.6 mph - 0.01 in Snow Light Snow
12:53 PM 32.0 °F 27.5 °F 28.9 °F 88% 30.19 in 1.0 mi NW 4.6 mph - 0.02 in Snow Light Snow
1:06 PM 33.8 °F 29.6 °F 30.2 °F 87% 30.19 in 1.8 mi WNW 4.6 mph - 0.00 in Snow Light Snow
1:12 PM 33.8 °F 29.6 °F 30.2 °F 87% 30.19 in 3.0 mi NW 4.6 mph - 0.00 in Snow Light Snow
1:19 PM 33.8 °F 30.8 °F 30.2 °F 87% 30.19 in 5.0 mi NW 3.5 mph - 0.01 in Snow Light Snow
1:53 PM 35.1 °F - 28.9 °F 78% 30.19 in 10.0 mi Calm Calm - 0.01 in   Overcast
2:53 PM 36.0 °F - 30.9 °F 82% 30.19 in 10.0 mi Calm Calm - N/A   Overcast
3:53 PM 36.0 °F 31.1 °F 30.0 °F 79% 30.20 in 10.0 mi East 5.8 mph - N/A   Mostly Cloudy
4:53 PM 36.0 °F 32.1 °F 30.0 °F 79% 30.20 in 10.0 mi NNE 4.6 mph - N/A   Mostly Cloudy
5:53 PM 37.9 °F 33.5 °F 28.9 °F 70% 30.19 in 10.0 mi ENE 5.8 mph - N/A   Mostly Cloudy
6:53 PM 36.0 °F 29.6 °F 28.0 °F 73% 30.20 in 10.0 mi NNW 8.1 mph - N/A   Mostly Cloudy
7:36 PM 35.6 °F 32.8 °F 28.4 °F 75% 30.20 in 10.0 mi NW 3.5 mph - N/A   Mostly Cloudy
7:53 PM 35.1 °F 28.6 °F 27.0 °F 72% 30.21 in 10.0 mi WNW 8.1 mph - N/A   Mostly Cloudy
8:53 PM 34.0 °F 28.8 °F 26.1 °F 73% 30.22 in 10.0 mi NW 5.8 mph - N/A   Mostly Cloudy
9:53 PM 34.0 °F 28.8 °F 26.1 °F 73% 30.24 in 10.0 mi WNW 5.8 mph - N/A   Mostly Cloudy
10:14 PM 33.8 °F 28.6 °F 26.6 °F 75% 30.24 in 10.0 mi NW 5.8 mph - N/A   Overcast
10:53 PM 33.1 °F 26.9 °F 26.1 °F 75% 30.25 in 10.0 mi WNW 6.9 mph - N/A   Overcast
11:53 PM 32.0 °F 26.4 °F 26.1 °F 79% 30.26 in 10.0 mi NW 5.8 mph - N/A   Mostly Cloudy